Weather in Zymohiria

Ukraine / Luhansk Region     48°35′18″N   38°55′31″E
temp.,
°C
wind,
m/s
gust,
m/s
humid.,
%
clouds,
%
prec.,
mm/h
press.,
hPa
HPBL,
m
15 may, sat
sat1500:00+17s22847 0.1 101112
03:00+14wsw22645 0.3 101214
06:00+15w377966 0.1 1013138
09:00+19n12628 0.1 1013224
12:00+24ssw23439 0.0 10141421
15:00+26sw23395 0.0 10131972
18:00+25sw225168 0.0 1013219
21:00+19w2261100 0.0 101411
16 may, sun
sun1600:00+17nw1168100 0.0 101311
03:00+15n227354 0.0 101311
06:00+16nne128022 0.0 101357
09:00+22ne456839 0.0 1012516
12:00+26e565481 0.0 10111117
15:00+26ese673813 0.0 10101252
18:00+24e49546 0.0 1008404
21:00+19ene337276 0.0 100829
17 may, mon
mon1700:00+16e377713 0.0 1007103
03:00+15ese38705 0.0 1007140
06:00+14e311725 0.0 1007269
09:00+21se710527 0.0 1007579
12:00+25sse68465 0.0 10071125
15:00+26sse56506 0.0 10071338
18:00+24s576398 0.0 1007598
21:00+18ssw71283100 0.0 1009407
18 may, tue
tue1800:00+17sw41080100 0.0 1009307
03:00+15sse2287100 0.0 101027
06:00+16ssw1187100 0.0 101171
09:00+18sw3475100 0.0 1011513
12:00+23ssw4553100 0.0 10111590
15:00+23ssw565552 0.8 10101696
18:00+21ssw68635 0.1 1010917
21:00+17ssw6128098 0.1 1011346
19 may, wed
wed1900:00+16ssw7138598 0.1 1010502
03:00+15sw7128275 0.1 1010623
06:00+14sw61084100 0.0 1011855
09:00+16wsw598038 0.0 1013857
12:00+21wsw57525 0.0 10131559
15:00+22w564398 0.0 10131928
18:00+21w225135 0.0 1013931
21:00+16ese116315 0.0 101411